Change the Weather History Date:

Tuesday, July 19, 2011

  Actual Average Record
Temperature  
Mean Temperature 84 °F -  
Max Temperature 90 °F 88 °F 93 °F (1999)
Min Temperature 78 °F 79 °F 71 °F (2008)
Cooling Degree Days 19    
Growing Degree Days 34 (Base 50)    
Moisture  
Dew Point 68 °F    
Average Humidity 61    
Maximum Humidity 74    
Minimum Humidity 42    
Precipitation  
Precipitation 0.00 in - - ()
Sea Level Pressure  
Sea Level Pressure 29.93 in    
Wind  
Wind Speed 6 mph ()    
Max Wind Speed 20 mph    
Max Gust Speed -    
Visibility 5.7 miles    
Events Thunderstorm    
Averages and records for this station are not official NWS values.
T = Trace of Precipitation, MM = Missing Value Source: Averaged Metar Reports

Daily Weather History Graph

Daily Weather History Graph

Search for Another Location

Airport or City:

Trip Planner

Search our weather history database for the weather conditions in past years. The results will help you decide how hot, cold, wet, or windy it might be!

Date:

Astronomy

Jul. 19, 2011 Rise Set
Actual Time 5:41 AM EST 6:45 PM EST
Civil Twilight 5:17 AM EST 7:09 PM EST
Nautical Twilight 4:49 AM EST 7:36 PM EST
Astronomical Twilight 4:21 AM EST 8:05 PM EST
Moon 9:41 PM EST (7/19) 9:22 AM EST (7/19)
Length of Visible Light 13h 51m
Length of Day
13h 04m
Waning Gibbous, 81% of the Moon is Illuminated
Jul 19
Waning Gibbous
Jul 23
Last Quarter
Jul 30
New
Aug 6
First Quarter
Aug 13
Full

Hourly Weather History & Observations

Time (EST) Temp. Heat Index Dew Point Humidity Pressure Visibility Wind Dir Wind Speed Gust Speed Precip Events Conditions
12:00 AM 80.6 °F 83.2 °F 68.0 °F 65% 29.95 in 6.2 mi ENE 3.5 mph - N/A   Scattered Clouds
1:00 AM 80 °F - 68 °F 58% 29.95 in 4 mi North 3.5 mph - -   Scattered Clouds
1:00 AM 80.6 °F 83.2 °F 68.0 °F 65% 29.95 in 6.2 mi North 3.5 mph - N/A Thunderstorm Scattered Clouds
2:00 AM 80.6 °F 83.2 °F 68.0 °F 65% 29.95 in 6.2 mi North 3.5 mph - N/A Thunderstorm Scattered Clouds
3:00 AM 80.6 °F 83.2 °F 68.0 °F 65% 29.95 in 6.2 mi NNW 2.3 mph - N/A   Scattered Clouds
4:00 AM 79 °F - 66 °F 56% 29.94 in 4 mi South 1.2 mph - -   Haze
4:00 AM 78.8 °F - 66.2 °F 65% 29.92 in 6.2 mi South 1.2 mph - N/A   Scattered Clouds
5:00 AM 78.8 °F - 68.0 °F 69% 29.92 in 6.2 mi NW 4.6 mph - N/A   Scattered Clouds
6:00 AM 78.8 °F - 66.2 °F 65% 29.95 in 6.2 mi NNW 3.5 mph - N/A   Scattered Clouds
7:00 AM 80 °F - 67 °F 56% 29.96 in 4 mi North 5.8 mph - -   Haze
7:00 AM 78.8 °F - 68.0 °F 69% 29.95 in 6.2 mi North 5.8 mph - N/A   Scattered Clouds
8:00 AM 80.6 °F 82.7 °F 66.2 °F 61% 29.95 in 6.2 mi WNW 1.2 mph - N/A   Mostly Cloudy
9:00 AM 82.4 °F 84.6 °F 66.2 °F 58% 29.95 in 6.2 mi SSW 3.5 mph - N/A   Mostly Cloudy
10:00 AM 85 °F - 65 °F 42% 29.95 in 4 mi ESE 13.8 mph - -   Haze
10:00 AM 84.2 °F 86.6 °F 66.2 °F 55% 29.95 in 6.2 mi ESE 13.8 mph - N/A   Mostly Cloudy
11:00 AM 86.0 °F 89.4 °F 68.0 °F 55% 29.95 in 6.2 mi SE 16.1 mph - N/A   Mostly Cloudy
12:00 PM 86.0 °F 89.4 °F 68.0 °F 55% 29.92 in 6.2 mi SE 16.1 mph - N/A   Scattered Clouds
1:00 PM 85 °F - 69 °F 49% 29.93 in 4 mi SE 17.3 mph - -   Haze
1:00 PM 86.0 °F 89.4 °F 68.0 °F 55% 29.92 in 6.2 mi SE 17.3 mph - N/A   Partly Cloudy
2:00 PM 84.2 °F 88.4 °F 69.8 °F 62% 29.89 in 6.2 mi SE 19.6 mph - N/A   Scattered Clouds
3:00 PM 84.2 °F 88.4 °F 69.8 °F 62% 29.89 in 6.2 mi SE 17.3 mph - N/A   Partly Cloudy
4:00 PM 84 °F - 70 °F 54% 29.90 in 4 mi SE 16.1 mph - -   Haze
4:00 PM 84.2 °F 88.4 °F 69.8 °F 62% 29.89 in 6.2 mi SE 16.1 mph - N/A   Partly Cloudy
5:00 PM 84.2 °F 88.4 °F 69.8 °F 62% 29.89 in 6.2 mi ESE 13.8 mph - N/A   Partly Cloudy
6:00 PM 84.2 °F 88.4 °F 69.8 °F 62% 29.89 in 6.2 mi NNW 4.6 mph - N/A   Scattered Clouds
7:00 PM 82 °F - 71 °F 63% 29.91 in 4 mi WNW 8.1 mph - -   Haze
7:00 PM 78.8 °F - 68.0 °F 69% 29.95 in 6.2 mi North 2.3 mph - N/A   Mostly Cloudy
8:00 PM 80.6 °F 84.6 °F 71.6 °F 74% 29.92 in 6.2 mi WNW 9.2 mph - N/A Thunderstorm Scattered Clouds
9:00 PM 80.6 °F 83.9 °F 69.8 °F 70% 29.95 in 6.2 mi North 3.5 mph - N/A   Mostly Cloudy
10:00 PM 81 °F - 70 °F 61% 29.96 in 4 mi NNW 2.3 mph - -   Haze
10:00 PM 80.6 °F 83.9 °F 69.8 °F 70% 29.95 in 6.2 mi NNW 2.3 mph - N/A   Mostly Cloudy
11:00 PM 80.6 °F 82.7 °F 66.2 °F 61% 29.95 in 6.2 mi NNE 5.8 mph - N/A   Mostly Cloudy